User: anonymous   Login
Location: Multiple Mirror Telescope
(31.6889°N, 110.8853°W)
Time: 07:09:28
(UTC-07:00)
Language:

Tiangong - Orbit

View from above orbital plane
View from above orbital plane
View from above satellite
View from above satellite

Ground track
Ground track

The orbit data is extracted from the following two-line orbital elements,

1 48274U 21035A   24176.00600259  .00037022  00000-0  40635-3 0  9993
2 48274  41.4689  41.5341 0005056 269.9235  90.1025 15.62463302180164
Epoch (UTC): 24 June 2024 00:08:38
Eccentricity: 0.0005056
inclination: 41.4689°
perigee height: 377 km
apogee height: 384 km
right ascension of ascending node: 41.5341°
argument of perigee: 269.9235°
revolutions per day: 15.62463302
mean anomaly at epoch: 90.1025°
orbit number at epoch: 18016

The dashed part of the orbit path shows where the satellite is in the earth's shadow,  

DLR